Location: ??????
(41.3794°N, 22.5014°E)
Time: 21:42:33
(UTC+00:00)

CRYOSAT 2 - Pass Details

Date: 30 November 2020
Orbit: 715 x 723 km, 92.0° (Epoch: 18 January)

Event Time Altitude Azimuth Distance (km) Brightness Sun altitude
Rises 15:34:56 0° 6° (N) 3,145 7.4 -6.5°
Reaches altitude 10° 15:37:14 10° 8° (N) 2,221 6.6 -6.9°
Maximum altitude 15:42:09 78° 94° (E) 744 4.4 -7.7°
Drops below altitude 10° 15:47:03 10° 181° (S) 2,206 7.2 -8.6°
Sets 15:49:20 0° 183° (S) 3,123 8.0 -9.0°
